Location: Filler
(36.7551°N, 30.4456°E)
Time: 07:23:33
(UTC+00:00)

FENGYUN 3A - Pass Details

Date: 17 September 2024
Orbit: 821 x 835 km, 98.6° (Epoch: 12 October)

Event Time Altitude Azimuth Distance (km) Brightness Sun altitude
Rises 23:33:13 0° 22° (NNE) 3,364 7.5 -44.9°
Reaches altitude 10° 23:35:45 10° 31° (NNE) 2,425 6.7 -44.6°
Enters shadow 23:36:27 14° 34° (NE) 2,179 6.4 -44.5°
